Torna al catalogo

TRANSIT 4A

AttivoNavigazioneLEO
NORAD 116·PAYLOAD·🇺🇸 United States

Lanciato Jun 29, 1961 da Cape Canaveral Space Force Station

Loading…

Prossimi Passaggi (prossime 24 ore)

TLE

AggiornatoSource: Space-Track

Epoca: Sep 8, 2026, 19:07 UTC

1   116U 61015A   26251.79671010 -.00000009  00000-0  51892-4 0  9997
2   116  66.8096  46.2326 0079544 218.2865 141.2551 13.92343106308348

Traccia TRANSIT 4A in tempo reale con AllMySat

Download on the App Store